EW6308 Weather Reports


Display with metric or nautical units.
time (UTC)temp
F
wind
direction
speed
MPH
gust
MPH
rain 1hr
in
rain 24hr
in
rain mn
in
humidity
%
barometer
mb
20260510154714 80 213 3.0 8.0 0.00 0.00 0.00 72 1016.8
20260510154211 79 170 4.0 8.0 0.00 0.00 0.00 75 1016.8
20260510153705 78 106 1.0 6.0 0.00 0.00 0.00 77 1017.0
20260510153202 79 67 6.0 13.0 0.00 0.00 0.00 74 1016.9
20260510152659 79 357 2.0 8.0 0.00 0.00 0.00 74 1016.9
20260510152155 79 227 3.0 3.0 0.00 0.00 0.00 73 1017.0
20260510151651 79 180 2.0 4.0 0.00 0.00 0.00 74 1016.8
20260510151150 78 71 4.0 7.0 0.00 0.00 0.00 76 1017.0
20260510150645 77 75 1.0 9.0 0.00 0.00 0.00 77 1016.9
20260510150141 78 208 2.0 3.0 0.00 0.00 0.00 78 1016.9
20260510145638 77 98 1.0 6.0 0.00 0.00 0.00 77 1017.0
20260510145134 77 70 3.0 7.0 0.00 0.00 0.00 79 1017.1
20260510144630 76 118 2.0 8.0 0.00 0.00 0.00 80 1017.1
20260510144126 76 216 1.0 8.0 0.00 0.00 0.00 82 1016.9
20260510143622 76 233 1.0 4.0 0.00 0.00 0.00 81 1017.2
20260510143119 76 69 0.0 9.0 0.00 0.00 0.00 80 1016.9
20260510142615 75 107 2.0 7.0 0.00 0.00 0.00 82 1017.0
20260510142112 76 90 4.0 7.0 0.00 0.00 0.00 82 1017.1
20260510141609 75 92 1.0 3.0 0.00 0.00 0.00 84 1017.0
20260510141107 74 272 1.0 7.0 0.00 0.00 0.00 84 1017.0
20260510140603 74 227 2.0 6.0 0.00 0.00 0.00 83 1017.1
20260510135558 74 67 3.0 8.0 0.00 0.00 0.00 84 1017.1
20260510135055 74 208 1.0 6.0 0.00 0.00 0.00 84 1017.1
20260510134552 74 105 2.0 8.0 0.00 0.00 0.00 83 1017.0
20260510134048 74 100 1.0 6.0 0.00 0.00 0.00 84 1016.8
20260510133544 74 236 3.0 7.0 0.00 0.00 0.00 83 1016.8
20260510133040 73 91 4.0 6.0 0.00 0.00 0.00 84 1016.8
20260510132537 73 147 3.0 7.0 0.00 0.00 0.00 84 1016.6
20260510132034 74 93 5.0 7.0 0.00 0.00 0.00 83 1016.5
20260510131532 73 42 4.0 6.0 0.00 0.00 0.00 84 1016.6
20260510131029 73 106 4.0 7.0 0.00 0.00 0.00 84 1016.4
20260510130525 72 225 0.0 8.0 0.00 0.00 0.00 85 1016.3
20260510130023 72 165 4.0 7.0 0.00 0.00 0.00 85 1016.2
20260510125519 71 101 6.0 7.0 0.00 0.00 0.00 86 1016.2
20260510125015 71 202 2.0 6.0 0.00 0.00 0.00 86 1016.2
20260510124512 71 100 2.0 7.0 0.00 0.00 0.00 87 1016.1
20260510124009 70 106 4.0 7.0 0.00 0.00 0.00 88 1016.3
20260510123504 70 95 4.0 4.0 0.00 0.00 0.00 88 1016.3
20260510123000 69 106 1.0 3.0 0.00 0.00 0.00 89 1016.0
20260510122456 69 339 1.0 2.0 0.00 0.00 0.00 90 1016.1
20260510121952 68 104 3.0 4.0 0.00 0.00 0.00 91 1016.1
20260510121450 68 100 2.0 7.0 0.00 0.00 0.00 92 1015.7
20260510120947 68 100 4.0 4.0 0.00 0.00 0.00 92 1015.5
20260510120444 67 83 4.0 7.0 0.00 0.00 0.00 93 1015.7
20260510115940 67 121 1.0 4.0 0.00 0.00 0.00 93 1015.5
20260510115437 67 228 0.0 1.0 0.00 0.00 0.00 93 1015.6
20260510114933 67 225 0.0 2.0 0.00 0.00 0.00 93 1015.6
20260510114430 67 102 2.0 2.0 0.00 0.00 0.00 93 1015.4
20260510113925 67 139 0.0 2.0 0.00 0.00 0.00 93 1015.3
20260510113421 67 106 3.0 4.0 0.00 0.00 0.00 93 1015.1
20260510112919 67 187 0.0 1.0 0.00 0.00 0.00 92 1014.9
20260510112416 67 251 0.0 1.0 0.00 0.00 0.00 92 1014.8
20260510111912 67 16 1.0 2.0 0.00 0.00 0.00 92 1014.9
20260510111408 67 97 0.0 1.0 0.00 0.00 0.00 92 1014.6
20260510110904 67 310 1.0 2.0 0.00 0.00 0.00 92 1014.5
20260510110401 67 136 1.0 2.0 0.00 0.00 0.00 92 1014.5
20260510105857 67 167 0.0 2.0 0.00 0.00 0.00 92 1014.3
20260510105356 67 141 2.0 2.0 0.00 0.00 0.00 91 1014.1
20260510104853 68 195 0.0 2.0 0.00 0.00 0.00 91 1014.2
20260510104350 68 74 2.0 3.0 0.00 0.00 0.00 91 1014.2
20260510103846 68 116 1.0 1.0 0.00 0.00 0.00 91 1014.2
20260510103343 68 276 0.0 0.0 0.00 0.00 0.00 90 1013.9
20260510102839 68 276 0.0 1.0 0.00 0.00 0.00 90 1013.6
20260510102335 68 200 0.0 1.0 0.00 0.00 0.00 90 1013.5
20260510101832 68 120 1.0 1.0 0.00 0.00 0.00 89 1013.2
20260510101331 69 216 0.0 0.0 0.00 0.00 0.00 89 1013.2
20260510100826 69 234 0.0 1.0 0.00 0.00 0.00 89 1012.9
20260510100324 69 173 1.0 2.0 0.00 0.00 0.00 88 1012.9
20260510095820 69 202 1.0 2.0 0.00 0.00 0.00 88 1012.8
20260510095315 69 182 1.0 3.0 0.00 0.00 0.00 88 1012.9
20260510094814 69 193 2.0 2.0 0.00 0.00 0.00 87 1012.9
20260510094310 69 191 1.0 2.0 0.00 0.00 0.00 87 1012.8
20260510093807 69 202 1.0 2.0 0.00 0.00 0.00 87 1013.0
20260510093303 69 210 1.0 1.0 0.00 0.00 0.00 87 1013.0
20260510092759 69 213 0.0 1.0 0.00 0.00 0.00 86 1013.0
20260510092255 69 169 2.0 3.0 0.00 0.00 0.00 86 1012.9
20260510091750 69 212 1.0 1.0 0.00 0.00 0.00 86 1012.9
20260510091248 69 225 0.0 1.0 0.00 0.00 0.00 85 1012.9
20260510090745 70 206 0.0 0.0 0.00 0.00 0.00 85 1012.9
20260510090242 70 204 0.0 0.0 0.00 0.00 0.00 84 1012.8
20260510085737 70 211 1.0 2.0 0.00 0.00 0.00 84 1012.8
20260510085231 70 207 2.0 3.0 0.00 0.00 0.00 83 1012.5
20260510084728 71 190 2.0 3.0 0.00 0.00 0.00 83 1012.5
20260510084225 71 203 4.0 6.0 0.00 0.00 0.00 82 1012.5
20260510083721 71 205 4.0 8.0 0.00 0.00 0.00 82 1012.2
20260510083219 71 195 6.0 8.0 0.00 0.00 0.00 81 1012.2
20260510082714 71 214 2.0 3.0 0.00 0.00 0.00 81 1012.3
20260510082211 71 210 2.0 3.0 0.00 0.00 0.00 81 1012.2
20260510081710 71 202 4.0 6.0 0.00 0.00 0.00 80 1012.2
20260510081207 71 186 3.0 6.0 0.00 0.00 0.00 80 1012.1
20260510080707 72 198 5.0 7.0 0.00 0.00 0.00 79 1011.9
20260510080203 72 207 4.0 6.0 0.00 0.00 0.00 79 1012.1
20260510075700 72 200 4.0 6.0 0.00 0.00 0.00 79 1011.9
20260510075158 72 172 7.0 8.0 0.00 0.00 0.00 78 1011.8
20260510074655 72 164 6.0 9.0 0.00 0.00 0.00 78 1011.9
20260510074150 72 164 4.0 9.0 0.00 0.00 0.00 78 1011.9
20260510073647 72 187 5.0 8.0 0.00 0.00 0.00 78 1012.0
20260510073143 73 198 4.0 9.0 0.00 0.00 0.00 77 1012.0
20260510072639 73 218 3.0 10.0 0.00 0.00 0.00 77 1012.0
20260510072136 73 193 6.0 9.0 0.00 0.00 0.00 77 1012.2
20260510071631 73 181 5.0 10.0 0.00 0.00 0.00 77 1012.2
20260510071130 73 166 3.0 7.0 0.00 0.00 0.00 77 1012.3
20260510070627 73 179 5.0 8.0 0.00 0.00 0.00 76 1012.3
20260510070124 73 143 4.0 9.0 0.00 0.00 0.00 76 1012.3
20260510065620 73 192 6.0 9.0 0.00 0.00 0.00 76 1012.4
20260510065116 73 170 6.0 8.0 0.00 0.00 0.00 76 1012.2
20260510064612 73 225 2.0 10.0 0.00 0.00 0.00 76 1012.2
20260510064109 73 141 4.0 6.0 0.00 0.00 0.00 77 1012.4
20260510063606 73 233 2.0 4.0 0.00 0.00 0.00 78 1012.4
20260510063103 73 183 2.0 4.0 0.00 0.00 0.00 78 1012.4
20260510062559 73 171 2.0 3.0 0.00 0.00 0.00 78 1012.4
20260510062055 73 179 2.0 4.0 0.00 0.00 0.00 78 1012.5
20260510061551 73 211 3.0 4.0 0.00 0.00 0.00 78 1012.4
20260510061048 73 178 3.0 6.0 0.00 0.00 0.00 77 1012.6
20260510060544 73 162 2.0 4.0 0.00 0.00 0.00 77 1012.5
20260510060040 74 170 2.0 6.0 0.00 0.00 0.00 77 1012.5
20260510055536 74 175 3.0 7.0 0.00 0.00 0.00 77 1012.3
20260510055035 74 193 5.0 7.0 0.00 0.00 0.00 78 1012.3
20260510054531 74 190 2.0 4.0 0.00 0.00 0.00 78 1012.3
20260510054026 74 183 2.0 7.0 0.00 0.00 0.00 79 1012.2
20260510053521 74 196 4.0 7.0 0.00 0.00 0.00 80 1012.1
20260510053018 74 203 4.0 8.0 0.00 0.00 0.00 80 1012.3
20260510052514 75 201 4.0 7.0 0.00 0.00 0.00 81 1012.3
20260510052010 75 175 3.0 4.0 0.00 0.00 0.00 82 1012.3
20260510051506 75 171 6.0 7.0 0.00 0.00 0.00 82 1012.2
20260510051002 75 197 3.0 6.0 0.00 0.00 0.00 82 1012.3
20260510050500 75 175 2.0 6.0 0.00 0.00 0.00 82 1012.1
20260510045956 75 161 3.0 7.0 0.00 0.00 0.00 82 1012.2
20260510045454 75 189 2.0 7.0 0.00 0.00 0.00 82 1012.5
20260510044950 75 174 3.0 6.0 0.00 0.00 0.00 82 1012.2
20260510044447 75 210 4.0 7.0 0.00 0.00 0.00 82 1012.5
20260510043944 75 196 4.0 4.0 0.00 0.00 0.00 82 1012.3
20260510043439 75 225 3.0 6.0 0.00 0.00 0.00 81 1012.5
20260510042938 76 179 5.0 6.0 0.00 0.00 0.00 80 1012.3
20260510042434 76 187 1.0 6.0 0.00 0.00 0.00 79 1012.4
20260510041929 76 174 4.0 6.0 0.00 0.00 0.00 78 1012.4
20260510041427 77 171 3.0 6.0 0.00 0.00 0.00 77 1012.3
20260510040925 77 171 4.0 6.0 0.00 0.00 0.00 76 1012.4
20260510040421 77 215 4.0 6.0 0.00 0.00 0.00 75 1012.4
20260510035917 77 179 3.0 4.0 0.00 0.00 0.00 74 1012.5
20260510035414 77 188 3.0 3.0 0.00 0.00 0.00 74 1012.5
20260510034913 77 215 3.0 4.0 0.00 0.00 0.00 74 1012.3
20260510034412 77 174 2.0 3.0 0.00 0.00 0.00 75 1012.2
20260510033908 77 198 1.0 1.0 0.00 0.00 0.00 75 1012.2
20260510033405 77 189 1.0 2.0 0.00 0.00 0.00 75 1012.1
20260510032901 77 194 0.0 1.0 0.00 0.00 0.00 75 1012.0
20260510032358 77 198 1.0 1.0 0.00 0.00 0.00 75 1012.2
20260510031853 77 189 1.0 1.0 0.00 0.00 0.00 75 1011.9
20260510031349 77 198 0.0 1.0 0.00 0.00 0.00 74 1012.1
20260510030849 77 200 1.0 1.0 0.00 0.00 0.00 75 1012.0
20260510030345 77 201 1.0 1.0 0.00 0.00 0.00 74 1011.8
20260510025843 77 200 1.0 1.0 0.00 0.00 0.00 73 1011.6
20260510025340 78 200 0.0 1.0 0.00 0.00 0.00 73 1011.6
20260510024837 78 201 1.0 1.0 0.00 0.00 0.00 72 1011.5
20260510024334 79 200 0.0 0.0 0.00 0.00 0.00 70 1011.5
20260510023830 80 200 0.0 1.0 0.00 0.00 0.00 69 1011.5
20260510023326 80 200 0.0 0.0 0.00 0.00 0.00 68 1011.4
20260510022824 81 199 0.0 1.0 0.00 0.00 0.00 66 1011.5
20260510022323 81 192 2.0 3.0 0.00 0.00 0.00 66 1011.3
20260510021822 81 176 2.0 2.0 0.00 0.00 0.00 66 1011.3
20260510021320 81 201 1.0 1.0 0.00 0.00 0.00 66 1011.1
20260510020816 80 163 2.0 2.0 0.00 0.00 0.00 66 1011.0
20260510020311 81 193 0.0 1.0 0.00 0.00 0.00 66 1010.9
20260510015808 81 195 0.0 0.0 0.00 0.00 0.00 65 1011.0
20260510015306 81 205 0.0 1.0 0.00 0.00 0.00 65 1010.9
20260510014759 82 210 0.0 0.0 0.00 0.00 0.00 64 1010.7
20260510014256 82 210 0.0 1.0 0.00 0.00 0.00 63 1010.6
20260510013752 82 195 2.0 2.0 0.00 0.00 0.00 63 1010.5
20260510013248 82 204 0.0 1.0 0.00 0.00 0.00 62 1010.6
20260510012749 83 194 1.0 2.0 0.00 0.00 0.00 62 1010.6
20260510012243 83 187 1.0 2.0 0.00 0.00 0.00 61 1010.4
20260510011743 83 187 1.0 1.0 0.00 0.00 0.00 60 1010.4
20260510011239 84 199 0.0 1.0 0.00 0.00 0.00 60 1010.3
20260510010736 84 188 0.0 1.0 0.00 0.00 0.00 59 1010.2
20260510010232 85 200 0.0 0.0 0.00 0.00 0.00 58 1010.3
20260510005729 85 199 0.0 0.0 0.00 0.00 0.00 57 1010.3
20260510005226 86 171 0.0 2.0 0.00 0.00 0.00 56 1010.2
20260510004724 86 171 0.0 1.0 0.00 0.00 0.00 56 1010.1
20260510004222 86 206 0.0 1.0 0.00 0.00 0.00 55 1010.2
20260510003719 87 161 2.0 3.0 0.00 0.00 0.00 54 1010.1
20260510003214 87 197 1.0 1.0 0.00 0.00 0.00 53 1009.9
20260510002713 87 126 1.0 2.0 0.00 0.00 0.00 52 1009.9
20260510002212 88 111 3.0 7.0 0.00 0.00 0.00 51 1010.0
20260510001708 88 200 1.0 3.0 0.00 0.00 0.00 51 1009.9
20260510001207 88 184 0.0 2.0 0.00 0.00 0.00 51 1009.8
20260510000707 88 198 0.0 0.0 0.00 0.00 0.00 50 1010.0
20260510000205 88 203 0.0 2.0 0.00 0.00 0.00 50 1010.0
20260509235701 89 72 0.0 3.0 0.00 0.00 0.00 49 1009.8
20260509235158 89 184 2.0 2.0 0.00 0.00 0.00 49 1009.7
20260509234654 89 132 0.0 2.0 0.00 0.00 0.00 48 1009.6
20260509234151 89 188 0.0 3.0 0.00 0.00 0.00 48 1009.5
20260509233649 89 189 2.0 3.0 0.00 0.00 0.00 47 1009.8
20260509233146 89 108 2.0 4.0 0.00 0.00 0.00 46 1009.8
20260509232642 89 196 2.0 6.0 0.00 0.00 0.00 47 1009.8
20260509232139 89 181 1.0 2.0 0.00 0.00 0.00 48 1009.8
20260509231636 90 107 4.0 6.0 0.00 0.00 0.00 45 1009.6
20260509231134 90 54 1.0 3.0 0.00 0.00 0.00 46 1009.7
20260509230631 90 158 0.0 3.0 0.00 0.00 0.00 46 1009.7
20260509230127 90 174 0.0 4.0 0.00 0.00 0.00 46 1009.7
20260509225623 90 96 4.0 7.0 0.00 0.00 0.00 45 1009.6
20260509225119 90 165 0.0 4.0 0.00 0.00 0.00 46 1009.6
20260509224614 91 200 2.0 4.0 0.00 0.00 0.00 45 1009.7
20260509224112 92 91 2.0 3.0 0.00 0.00 0.00 45 1009.6
20260509223609 92 86 2.0 4.0 0.00 0.00 0.00 45 1009.6
20260509223106 92 207 1.0 2.0 0.00 0.00 0.00 42 1009.6
20260509222602 92 209 1.0 2.0 0.00 0.00 0.00 44 1009.6
20260509222058 92 87 4.0 7.0 0.00 0.00 0.00 43 1009.6
20260509221554 92 205 2.0 6.0 0.00 0.00 0.00 43 1009.5
20260509221050 92 0 2.0 4.0 0.00 0.00 0.00 42 1009.7
20260509220546 91 46 2.0 6.0 0.00 0.00 0.00 42 1009.8
20260509220043 93 38 1.0 6.0 0.00 0.00 0.00 41 1009.8
20260509215537 94 160 0.0 1.0 0.00 0.00 0.00 39 1009.9
20260509215035 94 211 1.0 3.0 0.00 0.00 0.00 39 1009.6
20260509214532 94 237 2.0 6.0 0.00 0.00 0.00 40 1009.8
20260509214029 93 207 0.0 2.0 0.00 0.00 0.00 40 1009.6
20260509213525 93 220 2.0 3.0 0.00 0.00 0.00 40 1010.0
20260509213022 94 310 0.0 3.0 0.00 0.00 0.00 39 1009.9
20260509212520 95 126 2.0 3.0 0.00 0.00 0.00 39 1009.8
20260509212016 93 177 1.0 2.0 0.00 0.00 0.00 39 1010.0
20260509211512 93 224 0.0 3.0 0.00 0.00 0.00 39 1010.1
20260509211009 95 84 2.0 3.0 0.00 0.00 0.00 38 1010.2
20260509210506 95 223 1.0 2.0 0.00 0.00 0.00 38 1010.3
20260509210001 96 234 1.0 3.0 0.00 0.00 0.00 36 1010.2
20260509205456 94 249 1.0 2.0 0.00 0.00 0.00 39 1010.2
20260509204952 92 225 1.0 2.0 0.00 0.00 0.00 39 1010.2
20260509204448 92 226 2.0 3.0 0.00 0.00 0.00 38 1010.5
20260509203945 93 49 4.0 4.0 0.00 0.00 0.00 38 1010.8
20260509203441 92 330 2.0 3.0 0.00 0.00 0.00 39 1010.7
20260509202939 94 293 2.0 4.0 0.00 0.00 0.00 38 1010.6
20260509202435 94 312 1.0 2.0 0.00 0.00 0.00 38 1010.9
20260509201930 95 270 0.0 2.0 0.00 0.00 0.00 38 1010.9
20260509201425 94 201 0.0 1.0 0.00 0.00 0.00 39 1010.8
20260509200922 92 256 0.0 1.0 0.00 0.00 0.00 39 1011.0
20260509200422 91 305 2.0 3.0 0.00 0.00 0.00 40 1011.0
20260509195919 92 307 2.0 6.0 0.00 0.00 0.00 41 1010.9
20260509195415 94 0 1.0 4.0 0.00 0.00 0.00 39 1011.1
20260509194914 94 264 1.0 2.0 0.00 0.00 0.00 38 1011.0
20260509194410 93 252 1.0 4.0 0.00 0.00 0.00 43 1011.2
20260509193907 92 314 2.0 3.0 0.00 0.00 0.00 41 1011.2
20260509193407 91 318 1.0 4.0 0.00 0.00 0.00 43 1011.4
20260509192903 92 354 8.0 11.0 0.00 0.00 0.00 42 1011.3
20260509192359 90 354 2.0 3.0 0.00 0.00 0.00 43 1011.4
20260509191855 91 356 5.0 7.0 0.00 0.00 0.00 41 1011.8
20260509191351 90 307 2.0 6.0 0.00 0.00 0.00 46 1011.6
20260509190847 91 314 6.0 7.0 0.00 0.00 0.00 44 1011.8
20260509190344 91 341 1.0 4.0 0.00 0.00 0.00 44 1011.9
20260509185841 91 248 1.0 1.0 0.00 0.00 0.00 43 1011.8
20260509185338 91 315 2.0 4.0 0.00 0.00 0.00 45 1011.9
20260509184835 90 149 2.0 3.0 0.00 0.00 0.00 44 1011.9
20260509184332 89 297 2.0 4.0 0.00 0.00 0.00 45 1011.9
20260509183829 90 352 6.0 7.0 0.00 0.00 0.00 44 1012.0
20260509183324 91 295 4.0 4.0 0.00 0.00 0.00 44 1012.1
20260509182820 89 206 4.0 6.0 0.00 0.00 0.00 47 1012.1
20260509182317 90 4 4.0 4.0 0.00 0.00 0.00 45 1012.1
20260509181814 89 321 1.0 3.0 0.00 0.00 0.00 46 1012.2
20260509181312 89 336 4.0 8.0 0.00 0.00 0.00 47 1012.5
20260509180809 89 320 0.0 3.0 0.00 0.00 0.00 46 1012.5
20260509180305 89 246 1.0 3.0 0.00 0.00 0.00 49 1012.3
20260509175802 89 186 1.0 1.0 0.00 0.00 0.00 48 1012.6
20260509175258 89 180 3.0 4.0 0.00 0.00 0.00 46 1012.4
20260509174754 88 359 1.0 2.0 0.00 0.00 0.00 46 1012.6
20260509174250 88 184 4.0 6.0 0.00 0.00 0.00 46 1012.7
20260509173746 89 189 2.0 6.0 0.00 0.00 0.00 45 1012.7
20260509173241 89 291 3.0 4.0 0.00 0.00 0.00 45 1012.8
20260509172738 88 195 0.0 2.0 0.00 0.00 0.00 47 1012.8
20260509172235 87 7 2.0 6.0 0.00 0.00 0.00 49 1013.0
20260509171730 87 263 2.0 2.0 0.00 0.00 0.00 49 1012.9
20260509171226 87 329 3.0 4.0 0.00 0.00 0.00 51 1012.8
20260509170724 87 213 0.0 4.0 0.00 0.00 0.00 49 1013.0
20260509170219 86 186 0.0 1.0 0.00 0.00 0.00 54 1013.2
20260509165718 87 318 4.0 4.0 0.00 0.00 0.00 51 1013.1
20260509165213 86 114 0.0 2.0 0.00 0.00 0.00 55 1013.1
20260509164709 84 119 1.0 3.0 0.00 0.00 0.00 59 1013.1
20260509164205 84 202 4.0 6.0 0.00 0.00 0.00 58 1013.2
20260509163703 85 168 2.0 2.0 0.00 0.00 0.00 55 1013.3
20260509163159 85 331 3.0 4.0 0.00 0.00 0.00 56 1013.2
20260509162657 85 332 3.0 6.0 0.00 0.00 0.00 57 1013.2
20260509162152 85 329 3.0 6.0 0.00 0.00 0.00 58 1013.3
20260509161648 85 251 1.0 3.0 0.00 0.00 0.00 60 1013.0
20260509161144 84 264 1.0 2.0 0.00 0.00 0.00 62 1013.0
20260509160640 83 349 2.0 3.0 0.00 0.00 0.00 63 1013.1
20260509160135 83 287 3.0 4.0 0.00 0.00 0.00 63 1013.2
20260509155632 83 280 4.0 4.0 0.00 0.00 0.00 64 1013.3
20260509155128 82 97 1.0 2.0 0.00 0.00 0.00 66 1013.4